Volver al catálogo

SL-8 DEB

ActivoLEO
NORAD 5052·DEBRIS·🇷🇺 Russia

Lanzado Mar 18, 1971 desde Plesetsk Cosmodrome

Loading…

Próximos Pases (próximas 24 horas)

TLE

ActualizadoSource: Space-Track

Época: Sep 14, 2026, 13:01 UTC

1 05052U 71020C   26257.54289649 -.00000051  00000-0  31214-4 0  9993
2 05052  65.8188 271.0556 0005953 244.8575 196.8769 13.73653886781487

Sigue SL-8 DEB en tiempo real con AllMySat

Download on the App Store